Temp_Advection
nan nan nan nan nan nan nan nan nan nan nan nan nan nan nan nan nan nan nan nan nan nan nan nan nan nan nan nan nan nan nan nan nan nan nan nan nan nan nan nan nan nan nan
nan -0 -0 -0 0 -0 0 0 0 0 0 0 0 0 0 0 0 0 0 0 0 0 -0 -0 0 0 0 0 0 0 0 0 0 0 -0 -0 0 0 -0 0 -0 -0 nan
nan -0 -0 0 0 -0 0 0 0 0 0 0 0 0 0 0 0 0 0 0 0 0 0 -0 -0 -0 0 0 0 0 0 0 0 -0 0 -0 -0 0 0 0 0 0 nan
nan 0 -0 -0 0 0 0 0 0 0 0 0 0 0 0 -0 0 0 0 0 0 0 1 0 0 -0 -1 -0 -0 -0 0 0 0 0 0 0 0 -0 0 0 0 0 nan
nan 1 0 0 -0 -0 -0 0 0 0 0 0 0 0 1 0 0 0 0 0 0 0 0 -0 -0 0 -0 -0 0 0 0 0 0 0 0 0 0 0 0 0 0 0 nan
nan 0 0 0 0 -0 -1 -0 -0 0 0 0 0 0 0 0 0 0 0 0 0 0 0 -0 -0 -0 -0 0 -0 0 0 0 0 0 -0 -0 0 0 0 0 0 -0 nan
nan 0 0 0 0 0 -0 -0 -0 -0 0 0 0 -0 0 0 0 0 0 0 0 0 0 0 0 -0 -0 -0 0 -0 0 0 -0 0 0 0 0 0 0 -0 -0 0 nan
nan 0 0 0 0 0 0 0 0 0 -0 0 0 -1 -0 -0 0 0 0 0 0 0 0 0 0 0 0 0 0 0 -0 -0 -0 0 0 0 -0 -0 -0 -0 -0 0 nan
nan 0 1 0 1 1 0 1 1 1 0 0 -0 0 -0 -0 -0 0 0 0 0 0 0 0 0 0 0 0 0 0 0 0 0 0 -0 -0 -0 -0 -0 -0 -0 -0 nan
nan 1 0 0 0 0 1 0 0 0 0 0 0 -0 -0 -0 -0 -0 -0 0 0 0 0 0 0 0 0 0 0 0 0 0 0 1 0 -1 -0 -0 -0 -0 -1 -1 nan
nan 1 0 1 0 0 0 0 0 0 0 1 0 0 0 0 -0 -0 0 0 0 0 0 0 0 0 0 0 0 0 0 0 0 0 -0 -0 -0 0 0 -0 -1 -1 nan
nan 0 1 0 1 0 0 0 0 0 0 0 0 0 0 0 0 0 0 0 0 0 0 0 0 0 0 0 0 0 0 0 -0 -0 -0 0 -0 -0 0 -0 -0 -1 nan
nan 0 1 1 1 1 0 0 0 0 0 0 0 0 0 0 0 0 0 0 0 0 0 0 0 0 0 0 0 0 0 0 0 0 -0 -0 -0 -0 -0 -0 -0 -0 nan
nan 1 1 1 1 1 1 1 0 0 0 0 0 0 0 0 0 0 0 1 0 -0 0 0 0 0 0 0 0 0 0 0 0 0 -0 0 0 -0 -0 -0 -0 -0 nan
nan 2 1 1 1 1 1 1 0 0 0 0 0 0 0 0 0 0 0 0 0 0 1 1 1 0 0 0 0 0 0 0 0 -0 -0 -0 -0 0 -0 -0 -0 -0 nan
nan 2 1 2 1 2 1 1 1 1 1 0 1 0 0 0 0 0 0 0 0 0 0 1 0 0 0 0 0 0 0 0 0 -0 -0 -0 -0 -0 -0 -0 -0 -0 nan
nan 2 2 2 2 2 1 1 1 1 1 1 0 0 0 0 0 0 0 0 0 0 0 0 0 0 0 0 0 0 0 -0 -0 -0 -0 -0 -0 -0 -0 -0 -0 -0 nan
nan 2 2 2 2 1 1 1 1 1 1 0 0 0 0 0 0 0 0 0 0 0 0 0 0 0 0 0 0 0 0 0 -0 -0 -0 -0 -0 -0 -0 -0 -0 -0 nan
nan 2 2 1 1 1 2 1 1 0 0 0 0 0 0 0 0 0 0 0 0 0 0 0 0 0 0 0 0 0 0 0 -0 -0 -0 -0 -0 -0 -0 -0 -0 -0 nan
nan 1 1 1 2 2 1 0 0 0 0 0 0 0 0 0 0 0 0 0 0 0 0 0 0 0 0 0 0 0 0 0 -0 -0 -0 -0 -0 -0 -0 -0 -0 -0 nan
nan 0 1 1 1 1 -0 0 0 0 0 0 0 0 0 0 0 0 0 0 0 0 0 0 0 0 0 0 0 -0 -0 -0 -0 -0 -0 -0 -0 -0 -0 -0 -0 -0 nan
nan 1 1 1 0 -0 0 1 1 0 0 0 0 0 0 0 0 0 0 0 0 0 0 0 0 0 0 0 0 0 -0 -0 -0 -0 -0 -0 -0 -0 -0 -0 -0 -0 nan
nan 1 -0 0 -0 -0 0 0 0 0 0 0 0 0 0 0 0 0 0 0 0 0 0 0 0 0 0 0 0 0 -0 -0 -0 -0 -1 -1 -0 -0 0 -0 -0 -0 nan
nan 0 -0 -0 0 0 0 0 0 0 0 0 0 0 0 0 0 0 0 0 0 0 0 0 0 0 0 0 0 0 -0 -0 -0 0 -0 -1 -1 -0 -0 -0 0 0 nan
nan -0 0 0 0 0 0 0 1 1 0 0 0 0 0 0 0 0 0 0 0 0 0 0 0 0 0 0 0 -0 0 -0 -0 -0 0 -0 -1 -1 -1 -1 -0 0 nan
nan nan nan nan nan nan nan nan nan nan nan nan nan nan nan nan nan nan nan nan nan nan nan nan nan nan nan nan nan nan nan nan nan nan nan nan nan nan nan nan nan nan nan
Wind_Speed
28 25 22 20 19 20 20 19 17 16 16 15 14 12 10 9 6 6 5 8 8 10 8 5 5 5 7 9 12 14 15 15 15 13 12 11 11 12 13 13 11 12 12
22 21 20 19 18 19 20 18 15 14 14 13 13 14 13 11 11 10 9 7 5 4 10 11 3 6 7 9 11 13 14 13 11 13 11 9 7 9 8 8 8 8 7
19 17 17 17 16 17 17 16 14 13 12 13 12 11 10 11 9 11 8 7 6 4 6 10 19 11 8 11 13 14 10 13 11 9 5 5 4 4 5 4 4 3 4
20 17 15 16 16 17 18 17 18 16 13 13 13 12 11 11 11 9 10 11 17 18 19 15 18 21 27 19 16 20 20 18 12 10 7 7 7 5 4 4 3 2 1
22 20 19 18 18 18 20 22 21 17 17 15 13 14 14 11 12 14 12 11 13 9 11 9 9 11 19 18 16 14 13 11 11 7 6 5 4 3 2 4 2 2 0
25 22 20 19 18 18 19 21 18 21 19 17 18 17 15 13 11 11 11 10 8 7 5 3 6 3 4 7 13 11 12 13 9 4 5 5 3 4 4 5 1 1 2
27 24 21 20 18 16 18 19 19 20 22 19 17 16 14 12 11 11 10 10 10 8 6 5 5 1 2 2 4 10 6 3 3 1 2 1 3 6 7 6 7 6 3
26 24 21 21 19 17 18 19 21 22 21 20 17 15 10 8 10 8 9 9 10 9 8 8 9 8 6 8 6 6 4 4 9 10 11 8 7 7 9 10 11 12 10
26 24 23 21 21 18 16 18 20 19 20 22 19 12 8 8 12 9 9 9 9 8 8 8 10 11 11 12 11 10 14 14 13 14 16 12 11 11 13 14 15 17 18
32 28 26 23 21 18 17 18 19 18 17 17 20 19 12 7 10 9 11 11 10 9 8 7 6 8 11 13 14 13 14 15 16 19 16 20 15 16 16 16 18 20 20
33 32 28 26 23 20 20 20 20 20 18 17 16 18 18 13 11 9 11 14 12 10 9 8 8 8 8 10 11 14 17 18 17 19 25 21 15 10 9 10 12 14 13
36 32 29 26 24 22 21 21 20 18 17 16 17 17 17 17 16 13 10 13 12 11 11 10 9 7 8 9 10 11 12 13 13 14 16 16 9 8 9 9 10 10 11
36 33 31 29 27 24 23 20 18 17 16 16 16 16 16 16 14 15 13 14 13 12 11 10 8 7 7 8 9 10 10 11 11 12 13 13 10 6 6 8 9 9 9
36 34 32 30 28 27 24 22 19 16 15 15 15 15 14 14 13 14 14 14 11 12 12 11 11 8 9 9 10 8 8 7 8 9 10 11 9 7 5 5 6 7 7
37 35 33 32 29 28 25 22 19 17 16 14 13 13 13 14 14 14 13 13 13 12 14 14 11 10 9 10 8 7 7 6 6 6 7 8 9 10 9 9 9 9 9
37 36 35 32 31 28 26 24 22 19 17 15 14 13 12 13 13 13 13 14 14 13 11 12 11 10 9 9 8 7 6 5 6 6 7 8 8 9 10 10 11 10 10
36 35 35 32 29 26 26 23 20 17 16 14 13 12 11 11 12 13 13 13 12 11 11 11 11 9 8 7 7 6 6 6 6 7 7 8 9 9 9 10 10 10 11
36 34 34 32 30 28 23 19 16 16 13 11 11 10 10 10 9 9 9 8 9 9 8 8 10 9 7 7 6 6 6 7 7 7 8 8 9 10 10 10 11 12 12
36 33 31 30 29 25 20 18 16 13 12 11 10 10 9 8 7 7 7 6 6 6 6 6 7 8 7 7 7 6 6 7 7 7 7 8 9 9 10 11 12 13 13
33 33 30 29 25 22 18 15 15 14 13 13 12 11 10 8 6 6 6 6 7 7 7 7 7 7 6 6 5 5 6 6 7 8 9 9 9 10 10 12 13 14 15
28 28 27 24 21 17 17 16 15 14 14 14 12 10 9 8 7 6 5 5 5 5 5 6 6 6 5 5 5 6 7 7 8 9 8 9 10 12 14 15 16 16 16
27 24 21 20 19 19 19 18 17 15 13 11 10 10 10 8 8 8 7 6 6 5 5 5 5 5 5 6 6 8 9 10 9 10 13 12 15 16 16 15 16 15 15
25 22 20 19 21 21 20 18 15 13 12 12 11 10 10 9 8 7 6 5 5 5 5 4 5 5 6 7 9 10 11 12 13 15 19 20 18 17 17 16 16 16 15
23 23 22 22 21 19 18 16 15 14 13 12 11 11 10 9 8 7 6 6 5 5 5 6 6 7 8 9 10 12 14 15 16 16 18 22 20 19 19 18 17 16 15
24 24 23 22 19 17 16 14 14 14 14 13 12 11 10 9 9 8 7 7 7 7 7 8 9 9 10 11 12 15 16 17 18 17 14 15 16 19 20 18 12 9 10
25 24 22 18 16 14 14 14 14 14 14 13 13 12 11 10 9 9 9 9 8 9 10 11 11 12 13 14 14 16 15 15 15 18 13 20 20 19 19 15 3 14 23
Wind_Direction
159 155 152 152 154 156 159 154 150 143 141 142 142 143 139 123 116 118 115 97 74 90 94 118 132 144 148 142 146 142 137 125 120 117 110 101 98 92 90 93 85 73 64
164 162 160 158 158 155 161 162 149 145 141 134 130 126 130 127 121 111 115 116 92 71 96 93 114 195 184 171 159 150 141 133 122 118 115 106 109 103 101 91 82 75 63
156 157 161 162 163 159 159 157 152 151 144 141 143 137 129 127 121 113 111 100 77 80 93 90 73 137 158 171 163 160 153 128 94 95 113 83 120 121 117 113 118 95 64
163 158 162 164 166 165 162 161 156 159 160 157 150 142 135 127 121 109 108 117 111 113 104 97 82 97 83 90 101 116 120 126 120 124 115 106 94 98 112 117 110 112 89
171 167 166 165 166 167 164 167 165 172 171 172 166 155 145 142 130 119 117 121 116 120 98 92 69 79 94 90 97 111 115 122 129 146 131 100 108 103 152 158 192 149 175
170 170 169 169 168 169 167 172 178 175 183 187 178 163 158 160 151 148 150 157 170 141 115 29 2 3 37 98 94 98 118 119 127 136 99 98 106 139 188 201 240 339 324
172 170 173 166 167 178 184 185 189 192 179 186 193 175 166 168 171 166 173 189 201 214 225 234 217 260 341 73 139 106 102 214 302 260 168 187 222 194 208 280 260 239 224
173 174 175 172 170 173 184 194 201 198 197 194 191 176 168 180 186 194 192 201 207 216 224 220 212 207 202 228 231 235 138 264 282 279 281 289 273 264 247 247 260 267 282
181 185 179 184 179 179 193 199 202 208 208 199 195 193 181 205 199 206 206 210 213 211 219 227 228 229 225 222 224 205 228 243 262 268 277 274 275 285 284 276 276 276 281
185 185 184 184 184 179 185 192 197 203 210 213 204 206 215 207 193 197 210 211 212 214 204 210 230 230 226 226 223 221 221 234 253 268 281 286 280 283 283 279 282 285 288
187 185 186 189 187 184 181 187 194 198 202 210 220 222 221 217 214 210 199 207 210 212 221 215 208 232 237 232 228 230 235 237 247 258 277 288 301 296 296 299 299 298 300
187 186 190 189 189 189 186 187 189 196 202 203 216 220 228 225 222 220 212 197 204 211 215 220 220 213 233 241 245 246 245 247 254 261 275 293 311 296 289 299 305 310 312
188 191 191 194 192 192 190 189 191 198 204 208 214 221 225 231 238 234 228 207 209 208 214 217 221 223 234 243 242 240 242 249 256 263 274 288 301 301 291 294 302 311 314
198 194 195 194 192 195 191 192 191 195 202 207 215 221 226 231 231 231 233 222 199 206 216 230 229 227 240 248 251 243 244 238 242 251 266 283 298 305 301 294 297 303 311
194 195 192 195 196 197 195 196 199 201 202 210 217 220 223 229 230 228 225 225 227 221 220 229 234 238 239 243 244 246 251 254 256 264 272 283 293 304 309 307 300 296 297
192 192 192 194 195 195 197 199 201 203 208 216 220 223 228 230 231 230 230 231 232 235 230 227 224 231 229 236 245 256 262 264 271 279 284 285 287 290 293 295 296 298 297
193 194 192 191 192 193 192 195 197 202 206 215 218 223 230 229 228 229 230 231 234 235 234 222 215 217 222 229 240 252 266 274 277 278 282 285 288 289 289 292 294 295 294
192 192 189 190 187 186 186 185 194 195 199 205 213 215 216 217 214 213 214 218 223 226 228 223 208 210 214 221 238 255 265 275 281 286 288 292 295 298 300 299 299 297 296
187 185 183 180 182 183 182 177 185 190 193 195 195 195 194 187 190 188 187 190 197 202 203 207 200 201 213 233 248 258 267 274 280 284 287 289 293 296 298 294 293 299 302
186 185 185 186 181 172 171 180 184 186 184 179 176 169 170 175 193 208 216 221 224 225 224 220 216 213 218 227 244 258 263 274 283 288 287 286 293 294 293 293 296 300 302
185 176 172 164 156 161 175 177 176 176 171 169 177 188 198 206 211 218 218 213 205 200 197 199 203 209 223 241 261 277 287 291 295 290 286 288 288 293 297 297 300 300 300
167 157 153 158 154 168 171 166 166 174 182 188 193 193 200 210 207 198 192 186 189 195 204 208 213 225 239 252 267 279 290 298 303 295 290 287 294 296 298 297 296 294 292
153 147 147 158 167 168 169 173 177 183 188 197 207 207 199 188 185 191 194 200 205 209 218 228 237 245 256 267 278 286 292 297 300 302 301 298 301 299 298 295 292 293 293
145 153 162 166 169 171 176 181 186 192 197 196 191 186 186 191 197 206 215 222 229 235 239 241 248 258 268 276 282 287 291 294 295 299 305 305 306 303 297 292 290 290 291
160 164 167 168 173 178 183 190 194 194 192 192 191 192 196 204 212 220 228 235 240 246 254 262 268 274 275 278 284 285 293 298 300 300 304 304 314 314 312 315 306 283 286
164 165 167 172 179 190 194 194 194 195 196 197 199 203 208 215 226 232 237 244 248 253 258 264 271 273 276 277 280 283 287 289 294 304 307 310 307 320 322 325 285 289 307
Height
1570 1574 1577 1580 1583 1586 1589 1591 1594 1596 1598 1600 1601 1602 1604 1605 1606 1607 1608 1609 1611 1610 1610 1610 1610 1610 1611 1611 1612 1612 1614 1615 1616 1617 1618 1619 1619 1619 1619 1619 1619 1619 1618
1572 1576 1578 1581 1584 1587 1589 1592 1595 1597 1599 1601 1603 1604 1605 1606 1608 1609 1610 1610 1611 1611 1611 1610 1611 1610 1611 1612 1613 1614 1616 1617 1618 1619 1620 1621 1621 1620 1622 1621 1621 1621 1621
1572 1576 1579 1582 1585 1587 1590 1593 1595 1598 1600 1602 1604 1606 1607 1608 1609 1610 1612 1612 1612 1613 1613 1612 1611 1609 1611 1611 1613 1616 1616 1618 1620 1621 1621 1622 1623 1623 1623 1622 1622 1622 1622
1572 1574 1577 1581 1584 1586 1590 1593 1596 1598 1601 1603 1605 1607 1609 1610 1611 1612 1613 1615 1613 1615 1615 1615 1615 1614 1614 1615 1615 1614 1616 1619 1619 1622 1623 1624 1624 1624 1623 1623 1623 1622 1623
1571 1574 1576 1579 1582 1585 1588 1592 1595 1599 1601 1604 1606 1608 1610 1611 1612 1613 1615 1617 1616 1617 1617 1618 1619 1619 1619 1621 1621 1620 1622 1623 1622 1623 1624 1624 1624 1624 1625 1625 1624 1624 1623
1570 1574 1576 1579 1582 1584 1587 1591 1594 1597 1600 1602 1605 1608 1610 1611 1612 1613 1615 1617 1618 1619 1620 1621 1621 1622 1623 1623 1624 1624 1624 1624 1624 1625 1626 1625 1625 1626 1626 1625 1625 1624 1624
1568 1572 1576 1578 1581 1584 1587 1589 1592 1596 1598 1601 1603 1607 1610 1611 1612 1613 1615 1616 1617 1619 1620 1621 1622 1623 1623 1624 1625 1625 1624 1625 1625 1626 1626 1626 1625 1625 1625 1624 1624 1624 1624
1568 1572 1575 1578 1581 1582 1585 1588 1590 1592 1597 1599 1602 1605 1609 1612 1612 1613 1614 1615 1616 1618 1619 1620 1622 1623 1623 1624 1625 1625 1625 1624 1625 1625 1625 1626 1625 1625 1625 1624 1623 1623 1622
1566 1570 1573 1577 1579 1581 1583 1586 1589 1592 1594 1597 1600 1603 1605 1607 1610 1611 1612 1614 1615 1616 1618 1619 1620 1622 1622 1623 1624 1624 1624 1623 1623 1623 1623 1624 1624 1623 1623 1622 1621 1620 1620
1562 1567 1571 1575 1578 1580 1582 1585 1587 1590 1593 1596 1598 1600 1602 1604 1606 1608 1610 1611 1613 1614 1615 1616 1618 1619 1621 1621 1623 1623 1623 1622 1623 1621 1621 1620 1622 1621 1620 1619 1617 1616 1616
1561 1563 1567 1572 1575 1578 1581 1583 1585 1588 1591 1594 1597 1598 1600 1601 1602 1604 1605 1608 1611 1612 1613 1614 1615 1617 1618 1619 1620 1621 1622 1621 1622 1621 1618 1618 1618 1618 1617 1615 1614 1613 1612
1557 1562 1565 1570 1574 1576 1579 1582 1584 1587 1589 1592 1595 1597 1599 1600 1601 1602 1604 1606 1608 1610 1611 1612 1613 1614 1616 1617 1618 1619 1619 1619 1619 1619 1617 1616 1616 1615 1615 1614 1612 1612 1611
1552 1557 1562 1565 1571 1574 1577 1580 1582 1585 1587 1590 1593 1595 1597 1599 1601 1602 1603 1604 1605 1608 1609 1610 1611 1612 1614 1615 1615 1616 1617 1617 1617 1617 1616 1615 1614 1614 1613 1612 1611 1610 1609
1548 1551 1559 1562 1567 1571 1574 1578 1580 1583 1586 1588 1591 1592 1595 1597 1598 1600 1601 1602 1603 1605 1607 1608 1609 1609 1611 1612 1613 1613 1614 1614 1614 1614 1614 1613 1612 1612 1611 1611 1610 1609 1608
1544 1549 1553 1558 1563 1567 1571 1575 1578 1580 1583 1586 1588 1590 1592 1595 1597 1598 1599 1601 1602 1602 1604 1605 1607 1608 1609 1610 1610 1611 1611 1612 1612 1612 1612 1611 1611 1610 1609 1609 1608 1607 1607
1539 1545 1550 1554 1558 1563 1568 1571 1574 1578 1581 1584 1586 1588 1591 1593 1594 1596 1597 1598 1600 1601 1602 1603 1604 1606 1607 1607 1608 1610 1610 1610 1611 1610 1610 1610 1609 1608 1607 1607 1606 1605 1604
1538 1543 1546 1551 1555 1560 1564 1567 1572 1575 1579 1582 1584 1586 1588 1591 1592 1594 1595 1596 1597 1599 1600 1601 1603 1604 1605 1606 1607 1608 1609 1609 1609 1608 1608 1608 1607 1606 1605 1604 1604 1603 1602
1534 1540 1542 1548 1553 1559 1562 1565 1570 1573 1577 1580 1582 1585 1587 1589 1591 1592 1594 1595 1596 1597 1599 1600 1601 1603 1604 1605 1606 1606 1606 1607 1607 1607 1606 1605 1605 1604 1604 1602 1601 1600 1599
1531 1537 1540 1545 1551 1554 1558 1562 1568 1572 1575 1578 1581 1584 1586 1588 1590 1591 1593 1594 1595 1596 1598 1599 1600 1601 1603 1604 1604 1604 1605 1605 1605 1605 1604 1603 1603 1602 1601 1600 1598 1598 1597
1531 1533 1540 1543 1548 1550 1557 1563 1568 1570 1574 1578 1581 1584 1586 1588 1590 1591 1593 1594 1595 1596 1597 1598 1599 1600 1601 1602 1603 1603 1603 1603 1603 1602 1601 1601 1600 1600 1599 1597 1596 1595 1595
1535 1533 1537 1540 1546 1553 1559 1564 1567 1571 1574 1578 1581 1583 1586 1587 1589 1590 1591 1592 1594 1595 1596 1597 1598 1599 1600 1601 1601 1602 1602 1601 1601 1600 1599 1598 1598 1597 1596 1594 1593 1592 1591
1530 1532 1537 1544 1548 1556 1560 1564 1568 1571 1574 1577 1580 1583 1585 1586 1587 1589 1590 1591 1593 1594 1595 1596 1597 1597 1598 1598 1599 1599 1599 1599 1599 1597 1596 1596 1594 1594 1591 1590 1589 1588 1587
1529 1534 1541 1547 1552 1557 1561 1565 1568 1571 1574 1577 1580 1582 1583 1585 1587 1589 1590 1591 1592 1593 1594 1595 1595 1596 1596 1596 1597 1596 1596 1595 1594 1594 1591 1590 1589 1588 1587 1586 1585 1584 1583
1532 1538 1544 1549 1554 1557 1562 1565 1568 1571 1574 1577 1579 1581 1583 1585 1587 1588 1589 1590 1591 1592 1592 1593 1594 1594 1594 1594 1594 1593 1592 1591 1590 1590 1588 1585 1584 1581 1581 1581 1581 1579 1578
1536 1541 1546 1550 1555 1559 1562 1565 1568 1570 1573 1576 1578 1579 1581 1583 1585 1586 1587 1589 1589 1590 1591 1591 1591 1591 1591 1590 1590 1589 1588 1588 1586 1585 1585 1582 1580 1577 1576 1575 1574 1574 1574
1539 1543 1547 1552 1556 1559 1562 1565 1567 1570 1572 1574 1575 1577 1580 1581 1583 1584 1585 1586 1587 1588 1588 1589 1588 1588 1588 1587 1587 1586 1584 1584 1583 1581 1581 1580 1578 1577 1572 1570 1571 1570 1570